QPF
0.00 0.00 0.01 0.01 0.00 0.00 0.00 0.00 0.00 0.00 0.00 0.00 0.00 0.00 0.00 0.01 0.00 0.00 0.00 0.00 0.00 0.00 0.00 0.01 0.01 0.00 0.00 0.00 0.01 0.00 0.00 0.00 0.00 0.00 0.00 0.00 0.00 0.00 0.00 0.00 0.00 0.00 0.00
0.00 0.00 0.01 0.02 0.00 0.00 0.00 0.00 0.00 0.00 0.00 0.00 0.01 0.00 0.01 0.00 0.00 0.00 0.00 0.00 0.00 0.00 0.01 0.01 0.00 0.00 0.00 0.00 0.00 0.00 0.00 0.00 0.00 0.00 0.00 0.00 0.00 0.00 0.00 0.00 0.00 0.00 0.00
0.00 0.00 0.01 0.01 0.00 0.00 0.00 0.00 0.00 0.00 0.00 0.01 0.01 0.02 0.02 0.02 0.00 0.00 0.00 0.00 0.00 0.00 0.00 0.00 0.00 0.00 0.00 0.00 0.00 0.00 0.00 0.00 0.00 0.00 0.00 0.00 0.00 0.00 0.00 0.00 0.00 0.00 0.00
0.00 0.00 0.01 0.02 0.01 0.00 0.00 0.00 0.00 0.00 0.00 0.02 0.04 0.05 0.07 0.03 0.00 0.00 0.00 0.00 0.00 0.00 0.01 0.00 0.00 0.00 0.00 0.00 0.00 0.00 0.00 0.00 0.00 0.00 0.00 0.00 0.00 0.00 0.00 0.00 0.00 0.00 0.00
0.00 0.01 0.01 0.01 0.01 0.00 0.00 0.00 0.00 0.00 0.00 0.02 0.10 0.16 0.11 0.01 0.00 0.00 0.00 0.00 0.01 0.01 0.00 0.00 0.00 0.00 0.00 0.00 0.00 0.00 0.00 0.00 0.00 0.00 0.00 0.00 0.00 0.00 0.00 0.00 0.00 0.00 0.00
0.01 0.01 0.01 0.01 0.01 0.00 0.00 0.00 0.00 0.00 0.00 0.00 0.07 0.15 0.09 0.00 0.00 0.00 0.00 0.00 0.00 0.01 0.00 0.00 0.00 0.00 0.00 0.00 0.00 0.00 0.00 0.00 0.00 0.00 0.00 0.00 0.00 0.00 0.00 0.00 0.00 0.00 0.00
0.01 0.01 0.00 0.02 0.01 0.00 0.00 0.01 0.00 0.00 0.00 0.02 0.04 0.05 0.03 0.00 0.00 0.00 0.00 0.00 0.00 0.00 0.00 0.00 0.00 0.00 0.00 0.00 0.00 0.00 0.00 0.00 0.00 0.00 0.00 0.00 0.00 0.00 0.00 0.00 0.00 0.00 0.00
0.01 0.02 0.01 0.03 0.03 0.00 0.00 0.01 0.00 0.00 0.00 0.00 0.02 0.02 0.00 0.00 0.00 0.00 0.00 0.00 0.00 0.00 0.00 0.00 0.00 0.00 0.00 0.00 0.00 0.00 0.00 0.00 0.00 0.00 0.00 0.00 0.00 0.00 0.00 0.00 0.00 0.00 0.00
0.03 0.02 0.03 0.04 0.01 0.00 0.00 0.00 0.00 0.00 0.00 0.00 0.00 0.00 0.00 0.00 0.00 0.00 0.00 0.00 0.00 0.00 0.00 0.00 0.00 0.00 0.00 0.00 0.00 0.00 0.00 0.00 0.00 0.00 0.00 0.00 0.00 0.00 0.00 0.00 0.00 0.00 0.00
0.08 0.06 0.07 0.06 0.00 0.00 0.00 0.00 0.00 0.00 0.00 0.00 0.00 0.00 0.00 0.00 0.00 0.00 0.00 0.00 0.00 0.00 0.00 0.00 0.00 0.00 0.00 0.00 0.00 0.00 0.00 0.00 0.00 0.00 0.00 0.00 0.00 0.00 0.00 0.00 0.00 0.00 0.00
0.11 0.08 0.06 0.03 0.00 0.00 0.01 0.01 0.00 0.00 0.00 0.00 0.00 0.00 0.00 0.00 0.00 0.00 0.00 0.00 0.00 0.00 0.00 0.00 0.00 0.00 0.00 0.00 0.00 0.00 0.00 0.00 0.00 0.00 0.00 0.00 0.00 0.00 0.00 0.00 0.00 0.00 0.00
0.12 0.07 0.04 0.01 0.00 0.00 0.02 0.02 0.01 0.00 0.00 0.00 0.00 0.00 0.00 0.00 0.00 0.00 0.00 0.00 0.00 0.00 0.00 0.00 0.00 0.00 0.00 0.00 0.00 0.00 0.00 0.00 0.00 0.00 0.00 0.00 0.00 0.00 0.00 0.00 0.00 0.00 0.00
0.21 0.09 0.05 0.00 0.00 0.00 0.02 0.02 0.01 0.01 0.00 0.00 0.00 0.00 0.00 0.00 0.00 0.00 0.00 0.00 0.00 0.00 0.00 0.00 0.00 0.00 0.00 0.00 0.00 0.00 0.00 0.00 0.00 0.00 0.00 0.00 0.00 0.00 0.00 0.00 0.00 0.00 0.00
0.23 0.23 0.04 0.00 0.00 0.00 0.01 0.01 0.01 0.01 0.01 0.00 0.00 0.00 0.00 0.00 0.00 0.00 0.00 0.00 0.00 0.00 0.00 0.00 0.00 0.00 0.00 0.00 0.00 0.00 0.00 0.00 0.00 0.00 0.00 0.00 0.00 0.00 0.00 0.00 0.00 0.00 0.01
0.21 0.34 0.16 0.01 0.00 0.00 0.00 0.00 0.00 0.00 0.00 0.00 0.00 0.00 0.00 0.00 0.00 0.00 0.00 0.00 0.00 0.00 0.00 0.00 0.00 0.00 0.00 0.00 0.00 0.00 0.00 0.00 0.00 0.00 0.00 0.00 0.00 0.00 0.00 0.00 0.00 0.00 0.01
0.08 0.33 0.21 0.02 0.00 0.00 0.00 0.00 0.00 0.00 0.00 0.00 0.00 0.00 0.00 0.00 0.00 0.00 0.00 0.00 0.00 0.00 0.00 0.00 0.00 0.00 0.00 0.00 0.00 0.00 0.00 0.00 0.00 0.00 0.00 0.00 0.00 0.00 0.00 0.00 0.00 0.00 0.00
0.03 0.24 0.10 0.00 0.00 0.00 0.00 0.00 0.00 0.00 0.00 0.00 0.00 0.00 0.00 0.00 0.00 0.00 0.00 0.00 0.00 0.00 0.00 0.00 0.00 0.00 0.00 0.00 0.00 0.00 0.00 0.00 0.00 0.00 0.00 0.00 0.00 0.00 0.00 0.00 0.00 0.00 0.00
0.08 0.15 0.36 0.04 0.00 0.00 0.00 0.00 0.00 0.00 0.00 0.00 0.00 0.00 0.00 0.00 0.00 0.00 0.00 0.00 0.00 0.00 0.00 0.00 0.00 0.00 0.00 0.00 0.00 0.00 0.00 0.00 0.00 0.00 0.00 0.00 0.00 0.00 0.00 0.00 0.00 0.00 0.00
0.02 0.03 0.09 0.05 0.00 0.00 0.00 0.01 0.03 0.02 0.00 0.00 0.00 0.00 0.00 0.00 0.00 0.00 0.00 0.00 0.00 0.00 0.00 0.00 0.00 0.00 0.00 0.00 0.00 0.00 0.00 0.00 0.00 0.00 0.00 0.00 0.00 0.00 0.00 0.00 0.00 0.00 0.00
0.04 0.00 0.01 0.03 0.00 0.00 0.00 0.00 0.00 0.03 0.01 0.00 0.00 0.00 0.00 0.00 0.02 0.02 0.02 0.00 0.00 0.00 0.00 0.00 0.00 0.00 0.00 0.00 0.00 0.00 0.00 0.00 0.00 0.00 0.00 0.00 0.00 0.00 0.00 0.00 0.00 0.00 0.00
0.04 0.02 0.00 0.01 0.01 0.00 0.00 0.00 0.01 0.00 0.00 0.00 0.00 0.00 0.00 0.01 0.04 0.08 0.09 0.04 0.01 0.00 0.00 0.00 0.00 0.00 0.00 0.00 0.00 0.00 0.00 0.00 0.00 0.00 0.00 0.00 0.00 0.00 0.00 0.00 0.00 0.00 0.00
0.00 0.01 0.01 0.02 0.00 0.00 0.00 0.02 0.03 0.02 0.02 0.00 0.00 0.00 0.00 0.01 0.02 0.04 0.10 0.13 0.08 0.01 0.01 0.01 0.00 0.06 0.12 0.13 0.06 0.03 0.00 0.00 0.00 0.00 0.00 0.00 0.00 0.00 0.00 0.00 0.00 0.00 0.00
0.03 0.03 0.05 0.13 0.05 0.02 0.02 0.03 0.10 0.07 0.05 0.02 0.00 0.00 0.00 0.00 0.00 0.01 0.04 0.08 0.09 0.08 0.07 0.06 0.04 0.11 0.12 0.12 0.07 0.02 0.00 0.00 0.00 0.00 0.00 0.00 0.00 0.00 0.00 0.00 0.00 0.00 0.00
0.08 0.15 0.12 0.05 0.01 0.04 0.08 0.12 0.08 0.09 0.05 0.02 0.00 0.00 0.00 0.00 0.00 0.00 0.00 0.02 0.05 0.05 0.04 0.04 0.04 0.04 0.03 0.02 0.01 0.01 0.01 0.00 0.00 0.00 0.00 0.00 0.00 0.00 0.00 0.00 0.00 0.00 0.00
0.09 0.05 0.08 0.14 0.10 0.05 0.11 0.08 0.06 0.03 0.02 0.01 0.02 0.00 0.00 0.00 0.00 0.01 0.01 0.03 0.04 0.02 0.01 0.00 0.00 0.00 0.00 0.00 0.00 0.00 0.00 0.00 0.00 0.00 0.00 0.00 0.00 0.00 0.00 0.00 0.00 0.00 0.00
0.05 0.03 0.04 0.06 0.06 0.09 0.17 0.14 0.17 0.08 0.14 0.12 0.07 0.02 0.01 0.03 0.05 0.03 0.06 0.11 0.10 0.08 0.03 0.01 0.00 0.00 0.00 0.00 0.00 0.00 0.00 0.00 0.00 0.00 0.00 0.00 0.00 0.00 0.00 0.00 0.00 0.00 0.00
MSLP
1010.18 1010.80 1011.91 1012.39 1012.89 1013.28 1013.65 1013.87 1013.94 1013.99 1014.16 1014.26 1014.53 1014.86 1015.23 1015.61 1015.84 1016.05 1016.30 1016.44 1016.47 1016.55 1016.55 1016.73 1016.91 1017.12 1017.45 1017.38 1017.49 1017.70 1017.77 1017.89 1018.00 1018.01 1017.89 1017.76 1017.75 1017.68 1017.73 1017.56 1017.15 1017.16 1017.52
1009.99 1010.87 1011.96 1012.39 1012.80 1013.28 1013.55 1013.83 1013.98 1014.07 1014.17 1014.28 1014.54 1014.88 1015.21 1015.61 1016.00 1016.34 1016.56 1016.65 1016.67 1016.79 1016.89 1017.05 1017.28 1017.55 1017.69 1017.65 1017.90 1018.04 1018.18 1018.27 1018.34 1018.35 1018.14 1018.12 1018.17 1018.09 1018.07 1017.89 1017.58 1017.63 1017.69
1009.94 1010.76 1011.93 1012.40 1012.75 1013.16 1013.54 1013.88 1014.12 1014.17 1014.24 1014.38 1014.60 1014.86 1015.20 1015.58 1015.98 1016.43 1016.73 1016.80 1016.97 1017.09 1017.27 1017.39 1017.67 1017.81 1018.02 1018.07 1018.28 1018.38 1018.44 1018.56 1018.65 1018.53 1018.12 1017.81 1018.18 1018.44 1018.39 1018.22 1018.10 1017.91 1017.86
1009.98 1010.72 1011.50 1012.43 1012.81 1013.14 1013.46 1013.94 1014.22 1014.30 1014.36 1014.51 1014.72 1015.04 1015.26 1015.65 1016.05 1016.41 1016.81 1017.04 1017.23 1017.45 1017.72 1017.88 1018.11 1018.17 1018.31 1018.45 1018.62 1018.73 1018.82 1018.94 1018.91 1018.54 1017.95 1017.92 1018.23 1018.75 1018.70 1018.60 1018.46 1018.28 1018.08
1010.22 1010.64 1011.34 1012.47 1012.86 1013.24 1013.48 1013.81 1014.19 1014.40 1014.46 1014.64 1014.84 1015.18 1015.50 1015.76 1016.21 1016.56 1016.86 1017.21 1017.48 1017.82 1017.99 1018.33 1018.38 1018.44 1018.56 1018.72 1018.84 1018.98 1019.10 1019.20 1019.01 1018.44 1018.40 1018.37 1018.38 1019.01 1019.07 1018.95 1018.78 1018.69 1018.63
1010.34 1010.53 1011.86 1012.45 1012.90 1013.28 1013.57 1013.83 1014.13 1014.44 1014.60 1014.78 1014.94 1015.32 1015.65 1016.05 1016.39 1016.74 1017.08 1017.36 1017.70 1018.08 1018.30 1018.47 1018.54 1018.68 1018.80 1018.90 1019.03 1019.12 1019.30 1019.29 1018.90 1018.63 1018.69 1018.92 1018.88 1019.34 1019.35 1019.36 1019.21 1019.07 1018.94
1010.55 1010.55 1011.87 1012.46 1012.80 1013.24 1013.63 1013.91 1014.21 1014.48 1014.69 1014.96 1015.19 1015.55 1015.87 1016.33 1016.59 1016.96 1017.40 1017.70 1017.97 1018.24 1018.55 1018.69 1018.77 1018.93 1019.10 1019.20 1019.30 1019.41 1019.46 1019.40 1018.72 1018.81 1018.88 1018.90 1019.31 1019.56 1019.55 1019.54 1019.49 1019.43 1019.31
1010.80 1011.02 1011.70 1012.53 1012.76 1013.24 1013.72 1014.01 1014.30 1014.64 1014.87 1015.06 1015.38 1015.70 1016.09 1016.65 1017.03 1017.34 1017.66 1017.99 1018.30 1018.43 1018.66 1018.84 1018.98 1019.05 1019.22 1019.31 1019.53 1019.66 1019.74 1019.55 1018.94 1018.94 1019.12 1019.23 1019.83 1019.83 1019.87 1019.85 1019.77 1019.74 1019.65
1010.85 1011.34 1011.80 1012.39 1012.82 1013.40 1013.69 1014.13 1014.40 1014.76 1015.05 1015.33 1015.60 1015.89 1016.27 1016.93 1017.37 1017.72 1017.99 1018.18 1018.34 1018.56 1018.73 1018.94 1019.06 1019.19 1019.30 1019.46 1019.61 1019.71 1019.81 1019.69 1018.82 1019.04 1019.12 1019.16 1019.99 1019.94 1020.00 1020.01 1019.96 1019.94 1019.86
1011.82 1011.93 1011.98 1012.32 1012.65 1013.22 1013.80 1014.25 1014.64 1014.90 1015.21 1015.46 1015.75 1016.07 1016.60 1017.21 1017.67 1018.05 1018.28 1018.46 1018.48 1018.68 1018.86 1019.01 1019.16 1019.26 1019.39 1019.52 1019.70 1019.80 1019.84 1019.71 1018.96 1019.23 1019.22 1019.45 1020.02 1019.98 1020.07 1020.10 1020.08 1020.10 1020.09
1012.60 1012.37 1012.55 1012.40 1012.24 1012.70 1013.24 1014.25 1014.83 1015.18 1015.46 1015.69 1016.02 1016.37 1016.91 1017.17 1017.56 1018.16 1018.22 1018.70 1018.87 1018.96 1019.13 1019.24 1019.33 1019.50 1019.57 1019.68 1019.76 1019.86 1019.77 1018.95 1018.91 1018.95 1019.01 1019.83 1019.97 1019.90 1020.03 1020.08 1020.07 1020.06 1020.07
1012.19 1012.72 1012.50 1012.25 1012.41 1012.51 1013.14 1013.97 1014.28 1015.09 1015.31 1015.44 1015.80 1016.37 1016.33 1016.67 1016.99 1017.48 1018.42 1018.92 1019.10 1019.21 1019.38 1019.49 1019.57 1019.69 1019.71 1018.97 1019.32 1019.72 1018.97 1018.95 1018.89 1018.93 1018.99 1019.71 1019.85 1019.79 1019.82 1019.96 1019.99 1020.00 1019.99
1011.43 1012.50 1012.50 1012.35 1012.44 1012.53 1013.06 1013.38 1013.78 1014.56 1014.98 1015.37 1015.65 1015.92 1016.11 1016.58 1017.42 1017.61 1018.06 1018.59 1018.70 1019.19 1018.87 1019.26 1019.34 1018.94 1018.89 1018.89 1018.90 1018.80 1018.92 1018.93 1018.71 1018.83 1019.09 1019.64 1019.71 1019.69 1019.63 1019.69 1019.87 1019.93 1019.96
1012.35 1012.16 1012.15 1012.71 1012.66 1012.36 1012.76 1013.36 1013.59 1014.20 1014.83 1015.16 1015.69 1016.06 1016.33 1016.51 1017.09 1017.47 1017.69 1018.06 1018.27 1018.31 1018.41 1018.60 1018.59 1018.76 1018.94 1018.92 1018.77 1018.66 1018.80 1018.79 1018.59 1018.63 1018.74 1019.38 1019.55 1019.54 1019.51 1019.41 1019.39 1019.45 1019.56
1012.44 1012.09 1012.36 1012.92 1012.79 1012.54 1012.73 1012.98 1013.40 1013.96 1014.68 1015.04 1015.65 1015.96 1016.18 1016.38 1016.84 1017.41 1017.62 1017.85 1017.93 1018.11 1018.21 1018.34 1018.43 1018.46 1018.59 1018.59 1018.65 1018.54 1018.42 1018.38 1018.39 1018.44 1018.59 1019.18 1019.39 1019.36 1019.32 1019.30 1019.23 1019.13 1019.06
1011.36 1011.98 1011.66 1013.08 1012.74 1012.70 1012.64 1012.90 1013.26 1013.85 1014.30 1015.08 1015.54 1015.83 1016.09 1016.24 1016.65 1017.18 1017.48 1017.64 1017.67 1017.91 1018.06 1018.17 1018.14 1018.26 1018.31 1018.41 1018.29 1018.27 1018.19 1018.17 1018.26 1018.26 1018.23 1018.34 1018.91 1019.06 1019.02 1018.95 1018.90 1018.87 1018.76
1010.97 1012.19 1011.93 1012.54 1012.85 1012.83 1012.86 1012.97 1013.14 1013.47 1013.96 1014.54 1014.93 1015.60 1015.80 1016.23 1016.57 1016.88 1017.04 1017.29 1017.39 1017.60 1017.84 1018.15 1018.16 1018.30 1018.23 1018.32 1018.37 1018.16 1018.10 1017.97 1017.99 1017.90 1017.95 1018.04 1018.06 1018.58 1018.82 1018.64 1018.63 1018.50 1018.39
1011.69 1012.25 1012.04 1012.32 1012.70 1012.96 1012.98 1013.23 1013.58 1013.89 1014.14 1013.92 1014.52 1015.11 1015.65 1015.96 1016.38 1016.57 1016.80 1016.91 1017.14 1017.45 1017.69 1017.90 1018.02 1018.12 1018.14 1018.14 1018.06 1017.87 1017.94 1017.84 1017.81 1017.69 1017.70 1017.83 1017.92 1017.91 1017.93 1018.13 1018.31 1018.35 1018.16
1011.35 1012.15 1012.53 1012.39 1012.29 1012.83 1012.78 1013.33 1014.22 1014.22 1014.05 1014.10 1014.03 1014.40 1014.90 1015.62 1016.26 1016.38 1016.47 1016.50 1016.92 1017.30 1017.46 1017.65 1017.64 1017.85 1017.74 1017.88 1017.89 1017.72 1017.64 1017.68 1017.66 1017.44 1017.37 1017.33 1017.61 1018.05 1017.94 1017.71 1017.99 1018.14 1018.18
1011.12 1011.90 1012.60 1012.26 1012.32 1012.83 1013.04 1013.52 1014.16 1014.62 1014.08 1014.20 1014.40 1014.48 1014.85 1015.23 1016.03 1016.46 1016.47 1016.34 1016.50 1016.81 1017.15 1017.51 1017.48 1017.60 1017.66 1017.46 1017.63 1017.57 1017.79 1017.29 1017.13 1017.20 1016.99 1017.33 1017.41 1017.77 1017.96 1017.81 1017.54 1017.33 1017.90
1010.78 1011.25 1012.15 1012.20 1012.15 1012.49 1012.58 1013.10 1013.68 1014.05 1013.94 1014.29 1014.31 1014.47 1014.63 1015.10 1015.62 1016.30 1016.67 1016.72 1016.56 1016.67 1016.72 1016.90 1017.17 1017.29 1017.29 1017.70 1018.12 1017.40 1017.07 1016.94 1017.02 1017.11 1017.18 1017.27 1017.43 1017.60 1017.74 1017.70 1017.45 1017.34 1017.10
1010.86 1011.36 1011.76 1011.72 1011.68 1011.95 1012.45 1013.05 1012.96 1013.30 1013.74 1014.24 1014.08 1014.29 1014.31 1014.86 1015.25 1015.86 1016.43 1016.78 1016.87 1017.37 1017.47 1017.22 1017.11 1017.16 1017.14 1017.48 1017.67 1017.56 1016.91 1016.80 1016.84 1017.33 1017.43 1017.50 1017.51 1017.54 1017.45 1017.69 1017.62 1017.53 1017.42
1010.85 1011.46 1011.25 1011.46 1011.90 1012.48 1012.75 1013.21 1013.46 1013.75 1013.75 1014.45 1014.17 1014.51 1014.46 1014.88 1015.07 1015.49 1015.88 1015.86 1016.57 1017.06 1017.20 1017.57 1017.72 1017.86 1017.63 1017.72 1017.90 1017.58 1017.44 1017.08 1017.19 1016.79 1017.29 1017.58 1017.72 1017.50 1017.60 1017.64 1017.75 1017.92 1017.93
1010.84 1010.90 1011.34 1011.86 1011.97 1012.56 1012.76 1012.63 1012.88 1012.99 1013.43 1014.03 1013.95 1014.17 1014.47 1014.16 1014.84 1015.12 1015.40 1015.89 1015.86 1015.86 1017.19 1017.20 1017.61 1018.16 1018.38 1018.16 1018.26 1018.52 1018.52 1018.61 1017.91 1017.37 1017.58 1017.94 1017.97 1017.74 1017.68 1017.63 1017.83 1017.98 1018.16
1010.79 1010.82 1011.08 1011.72 1011.89 1012.10 1012.23 1012.53 1012.81 1013.00 1012.62 1012.86 1013.83 1013.60 1013.43 1013.98 1014.29 1014.85 1015.10 1015.56 1015.58 1015.93 1016.64 1016.83 1017.17 1017.47 1017.75 1018.01 1018.22 1018.42 1018.40 1018.49 1018.32 1018.19 1017.77 1017.78 1017.92 1017.84 1018.02 1018.04 1018.09 1018.02 1018.27
1010.50 1011.00 1011.12 1011.43 1011.61 1011.65 1011.70 1012.13 1012.69 1012.30 1012.43 1012.90 1013.38 1013.28 1013.51 1013.69 1014.20 1014.19 1014.70 1015.11 1015.24 1015.72 1015.97 1016.44 1016.73 1016.83 1016.98 1017.45 1017.69 1017.80 1018.04 1018.21 1017.95 1018.08 1018.26 1018.04 1018.01 1017.77 1018.08 1018.12 1018.02 1018.17 1018.42
Thickness
5777 5776 5770 5769 5767 5765 5762 5762 5761 5763 5762 5762 5760 5757 5753 5749 5747 5746 5744 5742 5742 5741 5741 5740 5737 5735 5732 5732 5731 5729 5728 5728 5727 5727 5727 5727 5726 5726 5725 5725 5726 5724 5720
5776 5771 5766 5765 5764 5762 5761 5760 5759 5760 5760 5760 5759 5756 5752 5748 5744 5741 5740 5739 5739 5738 5737 5736 5734 5731 5730 5729 5727 5726 5724 5724 5723 5723 5724 5724 5723 5723 5721 5721 5722 5720 5718
5771 5767 5762 5762 5762 5760 5758 5757 5756 5757 5757 5757 5756 5755 5751 5747 5743 5739 5737 5736 5735 5734 5733 5732 5729 5728 5726 5725 5723 5722 5722 5721 5720 5721 5723 5724 5721 5719 5718 5718 5717 5717 5716
5766 5764 5761 5757 5756 5756 5756 5753 5752 5753 5754 5753 5752 5751 5748 5745 5742 5738 5735 5733 5731 5730 5728 5726 5725 5724 5722 5721 5719 5718 5718 5717 5717 5720 5723 5722 5720 5715 5714 5714 5713 5713 5713
5759 5759 5757 5752 5752 5751 5751 5750 5748 5749 5750 5750 5749 5747 5744 5742 5739 5736 5733 5730 5728 5725 5724 5721 5720 5719 5719 5717 5716 5715 5714 5714 5715 5718 5718 5718 5717 5712 5710 5710 5710 5709 5708
5754 5755 5749 5748 5747 5747 5747 5747 5746 5745 5745 5745 5744 5742 5740 5738 5736 5732 5730 5728 5725 5721 5719 5717 5717 5715 5715 5714 5713 5713 5711 5712 5714 5715 5714 5712 5712 5708 5707 5705 5705 5705 5705
5746 5750 5742 5743 5743 5743 5742 5742 5742 5742 5742 5740 5739 5737 5735 5733 5731 5729 5725 5723 5721 5718 5715 5714 5713 5712 5710 5710 5709 5709 5709 5709 5713 5712 5710 5710 5706 5704 5703 5702 5702 5701 5700
5737 5740 5738 5735 5737 5737 5735 5735 5736 5736 5736 5736 5734 5732 5730 5727 5725 5723 5721 5718 5716 5715 5713 5711 5710 5710 5708 5707 5705 5705 5705 5706 5709 5709 5707 5705 5701 5700 5699 5699 5698 5697 5696
5728 5729 5730 5729 5731 5730 5730 5729 5730 5730 5730 5729 5729 5728 5726 5721 5718 5716 5715 5714 5713 5711 5710 5709 5708 5707 5706 5705 5703 5703 5703 5704 5708 5706 5705 5704 5698 5697 5696 5695 5694 5693 5693
5709 5713 5718 5721 5723 5722 5721 5722 5722 5723 5723 5724 5723 5722 5719 5716 5713 5709 5708 5707 5708 5707 5706 5705 5704 5704 5703 5702 5700 5700 5700 5701 5704 5702 5702 5700 5696 5695 5693 5692 5691 5690 5688
5691 5698 5701 5709 5718 5718 5718 5715 5714 5715 5716 5717 5717 5716 5712 5710 5709 5705 5705 5701 5701 5701 5700 5700 5700 5699 5699 5698 5698 5697 5698 5702 5703 5702 5701 5696 5694 5693 5691 5690 5689 5688 5687
5675 5682 5696 5703 5706 5712 5713 5710 5712 5709 5710 5711 5711 5710 5711 5709 5708 5705 5699 5696 5695 5695 5694 5694 5694 5694 5695 5698 5696 5695 5698 5699 5699 5700 5699 5694 5692 5691 5690 5688 5686 5685 5683
5670 5671 5682 5693 5699 5704 5706 5708 5709 5707 5706 5705 5706 5706 5708 5705 5700 5700 5698 5694 5694 5692 5693 5691 5690 5693 5694 5695 5695 5696 5695 5695 5697 5695 5694 5691 5689 5688 5687 5684 5682 5680 5679
5653 5668 5675 5679 5688 5697 5700 5701 5703 5703 5701 5701 5700 5699 5700 5700 5697 5696 5695 5693 5692 5693 5692 5691 5691 5690 5689 5690 5692 5693 5691 5691 5692 5692 5692 5689 5687 5685 5683 5683 5682 5679 5677
5650 5664 5663 5668 5677 5688 5695 5697 5699 5699 5696 5696 5694 5695 5695 5695 5694 5690 5690 5690 5690 5690 5689 5688 5688 5688 5687 5688 5687 5689 5689 5689 5689 5689 5688 5685 5684 5683 5681 5679 5678 5677 5675
5664 5660 5662 5655 5668 5677 5687 5690 5692 5693 5693 5690 5689 5689 5690 5691 5690 5687 5685 5685 5686 5686 5685 5685 5686 5686 5685 5684 5686 5686 5686 5686 5686 5686 5687 5685 5681 5679 5679 5678 5677 5674 5672
5661 5656 5652 5654 5660 5669 5676 5680 5683 5686 5689 5687 5687 5684 5686 5684 5683 5683 5682 5681 5682 5683 5681 5679 5681 5681 5682 5680 5680 5681 5682 5682 5682 5682 5681 5680 5680 5678 5674 5676 5672 5672 5671
5649 5647 5650 5653 5654 5658 5665 5669 5671 5675 5676 5684 5683 5681 5680 5680 5678 5678 5677 5678 5678 5677 5676 5675 5676 5676 5676 5675 5675 5677 5676 5676 5676 5677 5677 5675 5673 5673 5674 5673 5670 5667 5667
5646 5643 5641 5645 5653 5653 5660 5660 5657 5662 5668 5672 5679 5681 5681 5676 5671 5671 5672 5675 5674 5672 5672 5671 5672 5670 5671 5670 5670 5672 5671 5670 5670 5671 5672 5671 5669 5663 5663 5666 5664 5662 5660
5645 5644 5639 5645 5649 5648 5650 5653 5653 5652 5661 5664 5667 5672 5673 5672 5668 5666 5666 5669 5671 5670 5667 5664 5666 5666 5665 5667 5665 5665 5662 5668 5667 5666 5667 5663 5663 5659 5655 5657 5658 5657 5653
5645 5644 5638 5643 5648 5652 5655 5657 5653 5653 5660 5659 5663 5665 5667 5666 5666 5661 5660 5660 5663 5665 5665 5665 5661 5661 5663 5659 5652 5657 5660 5662 5660 5659 5657 5656 5653 5652 5650 5650 5651 5650 5650
5641 5640 5639 5645 5650 5655 5657 5656 5659 5658 5659 5654 5657 5659 5663 5661 5661 5658 5656 5656 5657 5652 5652 5655 5656 5655 5657 5654 5648 5645 5644 5649 5652 5649 5648 5646 5645 5644 5644 5642 5641 5641 5640
5638 5637 5644 5648 5648 5646 5649 5650 5650 5650 5651 5645 5649 5651 5653 5653 5655 5655 5653 5655 5652 5646 5646 5645 5643 5642 5643 5642 5639 5638 5633 5634 5638 5645 5640 5637 5635 5639 5635 5634 5631 5628 5626
5634 5638 5639 5640 5643 5640 5643 5650 5650 5649 5644 5643 5648 5649 5646 5651 5649 5651 5651 5649 5650 5652 5640 5640 5635 5629 5626 5627 5628 5627 5625 5622 5622 5626 5629 5624 5625 5628 5628 5625 5621 5618 5614
5628 5633 5632 5635 5640 5638 5643 5644 5642 5642 5646 5650 5644 5647 5651 5648 5649 5646 5647 5643 5645 5644 5637 5633 5630 5627 5625 5624 5621 5618 5617 5616 5618 5616 5618 5617 5617 5618 5615 5613 5610 5609 5605
5621 5623 5629 5629 5632 5638 5642 5643 5638 5642 5642 5642 5640 5641 5643 5646 5640 5642 5639 5635 5638 5635 5632 5628 5625 5624 5623 5620 5619 5617 5613 5610 5611 5611 5607 5608 5606 5607 5602 5600 5599 5597 5592